Weather History for KOTM - July, 2012

Change the Weather History Date:

Sunday, July 22, 2012

  Actual Average Record
Temperature  
Mean Temperature 84 °F 75 °F  
Max Temperature 100 °F 86 °F 108 °F (1934)
Min Temperature 68 °F 65 °F 46 °F (1947)
Degree Days  
Heating Degree Days 0 0  
Month to date heating degree days 0 0  
Since 1 June heating degree days 13 21  
Since 1 July heating degree days 0 0  
Cooling Degree Days 19 10  
Month to date cooling degree days 354 220  
Year to date cooling degree days 746 485  
Since 1 June cooling degree days 592 421  
Growing Degree Days 34 (Base 50)    
Moisture  
Dew Point 61 °F    
Average Humidity 51    
Maximum Humidity 76    
Minimum Humidity 26    
Precipitation  
Precipitation T in 0.13 in 1.33 in (1957)
Month to date precipitation 0.08 3.26  
Year to date precipitation 14.67 20.88  
Sea Level Pressure  
Sea Level Pressure 29.99 in    
Wind  
Wind Speed 8 mph (South)    
Max Wind Speed 17 mph    
Max Gust Speed 24 mph    
Visibility 10 miles    
Events      
T = Trace of Precipitation, MM = Missing Value Source: NWS Daily Summary

Daily Weather History Graph

Daily Weather History Graph

Search for Another Location

Airport or City:

Trip Planner

Search our weather history database for the weather conditions in past years. The results will help you decide how hot, cold, wet, or windy it might be!

Date:

Astronomy

Jul. 22, 2012 Rise Set
Actual Time 5:56 AM CDT 8:35 PM CDT
Civil Twilight 5:24 AM CDT 9:07 PM CDT
Nautical Twilight 4:44 AM CDT 9:47 PM CDT
Astronomical Twilight 3:59 AM CDT 10:32 PM CDT
Moon 9:45 AM CDT (7/22) 10:15 PM CDT (7/22)
Length of Visible Light 15h 42m
Length of Day
14h 38m
Waxing Crescent, 13% of the Moon is Illuminated
Jul 22
Waxing Crescent
Jul 26
First Quarter
Aug 1
Full
Aug 9
Last Quarter
Aug 17
New

Hourly Weather History & Observations

Time (CDT) Temp. Heat Index Dew Point Humidity Pressure Visibility Wind Dir Wind Speed Gust Speed Precip Events Conditions
12:53 AM 73.9 °F - 60.1 °F 62% 30.00 in 10.0 mi SSE 6.9 mph - N/A   Clear
1:53 AM 73.0 °F - 60.1 °F 64% 30.00 in 10.0 mi SSE 6.9 mph - N/A   Clear
2:53 AM 71.1 °F - 60.1 °F 68% 30.00 in 10.0 mi South 6.9 mph - N/A   Clear
3:53 AM 70.0 °F - 60.1 °F 71% 30.01 in 10.0 mi South 5.8 mph - N/A   Clear
4:53 AM 69.1 °F - 60.1 °F 73% 30.01 in 10.0 mi South 5.8 mph - N/A   Clear
5:53 AM 68.0 °F - 61.0 °F 78% 30.02 in 10.0 mi South 6.9 mph - N/A   Clear
6:53 AM 71.1 °F - 61.0 °F 70% 30.04 in 10.0 mi South 4.6 mph - N/A   Clear
7:53 AM 75.0 °F - 61.0 °F 62% 30.06 in 10.0 mi Calm Calm - N/A   Clear
8:53 AM 78.1 °F - 61.0 °F 56% 30.08 in 10.0 mi Calm Calm - N/A   Clear
9:53 AM 80.6 °F 81.8 °F 62.6 °F 54% 30.08 in 10.0 mi South 5.8 mph - N/A   Clear
10:53 AM 84.0 °F 84.9 °F 63.0 °F 49% 30.04 in 10.0 mi SSE 5.8 mph - N/A   Clear
11:53 AM 91.9 °F 93.3 °F 64.0 °F 39% 30.00 in 10.0 mi South 11.5 mph 18.4 mph 0.00 in   Clear
12:53 PM 95.0 °F 95.2 °F 61.0 °F 32% 29.99 in 10.0 mi South 15.0 mph 21.9 mph N/A   Clear
1:53 PM 97.0 °F 97.4 °F 61.0 °F 30% 29.97 in 10.0 mi South 13.8 mph 20.7 mph N/A   Clear
2:53 PM 99.0 °F 98.6 °F 59.0 °F 26% 29.96 in 10.0 mi SSW 12.7 mph 19.6 mph N/A   Clear
3:53 PM 99.0 °F 99.5 °F 60.1 °F 28% 29.95 in 10.0 mi SSW 13.8 mph 20.7 mph N/A   Clear
4:53 PM 99.0 °F 98.1 °F 57.9 °F 25% 29.95 in 10.0 mi SSW 11.5 mph 21.9 mph N/A   Clear
5:53 PM 98.1 °F 97.2 °F 57.9 °F 26% 29.93 in 10.0 mi SW 12.7 mph 21.9 mph N/A   Clear
6:53 PM 96.1 °F 95.2 °F 57.9 °F 28% 29.93 in 10.0 mi SSW 13.8 mph 20.7 mph N/A   Clear
7:53 PM 91.9 °F 91.5 °F 60.1 °F 34% 29.93 in 10.0 mi South 8.1 mph - N/A   Clear
8:53 PM 86.0 °F 85.7 °F 60.1 °F 41% 29.93 in 10.0 mi South 8.1 mph - N/A   Clear
9:53 PM 84.0 °F 84.0 °F 60.1 °F 44% 29.94 in 10.0 mi South 6.9 mph - N/A   Clear
10:53 PM 80.1 °F 81.2 °F 62.1 °F 54% 29.96 in 10.0 mi South 6.9 mph - N/A   Clear
11:53 PM 75.0 °F - 63.0 °F 66% 29.97 in 10.0 mi Calm Calm - N/A   Clear